Flag Weather past 2 weeks in Kaohsiung, Taiwan

Now
82 °F

Passing clouds.


Feels Like: 85 °F
Forecast: 69 / 85 °F
Wind: 12 mph from West

Location: Kaohsiung International Airport

Current Time: Nov 24, 2014 at 3:04:13 PM

Latest Report: Nov 24, 2014 at 2:30 PM


Visibility: N/A

Pressure: 29.92 "Hg

Humidity: 62%

Dew point: 68 °F

Location of KaohsiungLocation

Historic Weather in Kaohsiung — Graph

°F

Kaohsiung temperature yesterday

Maximum temperature yesterday: 84 °F (at 10:30 AM)
Minimum temperature yesterday: 70 °F (at 6:30 AM)
Average temperature yesterday: 78 °F

Past Weeks' High & Low Weather Summary

 TemperatureHumidityPressure
High122 °F (Nov 12, 4:00 AM)94% (Nov 11, 6:30 AM)30.12 "Hg (Nov 11, 6:30 AM)
Low66 °F (Nov 20, 6:00 AM)18% (Nov 12, 4:00 AM)29.92 "Hg (Nov 11, 1:30 PM)
Average77 °F71%30.01 "Hg
* Reported Nov 9 2:00 PM — Nov 24 2:00 PM, Kaohsiung, Weather by CustomWeather, © 2014

Note: Actual official high and low records may vary slightly from our data, if they occured in-between our weather recording intervals... More about our weather records

Advertising

Kaohsiung weather history for previous 24 hours

 ConditionsComfort  
Time TempWeatherWind HumidityBarometerVisibility
2:00 PM
Nov 24
82 °FPassing clouds.13 mph62%29.95 "Hg5 mi
1:30 PM82 °FPassing clouds.13 mph62%29.95 "Hg5 mi
1:00 PM84 °FScattered clouds.12 mph58%29.95 "Hg5 mi
12:30 PM82 °FScattered clouds.12 mph66%29.95 "Hg5 mi
12:00 PM84 °FPassing clouds.12 mph58%29.98 "Hg6 mi
11:30 AM84 °FPassing clouds.10 mph58%29.98 "Hg5 mi
11:00 AM84 °FPassing clouds.5 mph55%30.01 "Hg5 mi
10:30 AM82 °FPassing clouds.5 mph58%30.01 "Hg5 mi
10:00 AM82 °FScattered clouds.6 mph58%30.01 "Hg5 mi
9:30 AM81 °FPassing clouds.3 mph62%30.04 "Hg5 mi
9:00 AM79 °FPassing clouds.5 mph65%30.04 "Hg5 mi
8:30 AM77 °FPassing clouds.5 mph69%30.04 "Hg4 mi
8:00 AM75 °FScattered clouds.5 mph78%30.04 "Hg4 mi
7:30 AM73 °FScattered clouds.5 mph83%30.01 "Hg4 mi
7:00 AM70 °FScattered clouds.3 mph88%30.01 "Hg4 mi
6:30 AM68 °FScattered clouds.6 mph94%30.01 "Hg4 mi
6:00 AM68 °FPassing clouds.7 mph88%30.01 "Hg4 mi
5:00 AM70 °FPassing clouds.3 mph83%29.98 "Hg4 mi
4:00 AM70 °FPassing clouds.3 mph88%29.98 "Hg4 mi
3:00 AM72 °FPassing clouds.5 mph83%29.98 "Hg4 mi
2:00 AM72 °FPassing clouds.6 mph83%29.98 "Hg4 mi
1:00 AM70 °FPassing clouds.5 mph88%30.01 "Hg4 mi
12:00 AM72 °FPassing clouds.3 mph83%30.01 "Hg6 mi
11:30 PM
Nov 23
75 °FPassing clouds.3 mph78%30.01 "Hg6 mi
11:00 PM75 °FPassing clouds.2 mph78%30.01 "Hg6 mi
10:30 PM75 °FPassing clouds.3 mph78%30.01 "HgN/A
10:00 PM75 °FPassing clouds.2 mph78%30.01 "HgN/A
9:30 PM75 °FPassing clouds.5 mph78%30.01 "HgN/A
9:00 PM77 °FPassing clouds.5 mph74%30.01 "HgN/A
8:30 PM77 °FPassing clouds.5 mph74%30.01 "HgN/A
8:00 PM77 °FPassing clouds.7 mph74%30.01 "HgN/A
7:30 PM77 °FPassing clouds.7 mph74%29.98 "HgN/A
7:00 PM77 °FPassing clouds.5 mph74%29.98 "HgN/A
6:30 PM77 °FPassing clouds.8 mph74%29.98 "HgN/A
6:00 PM77 °FPassing clouds.6 mph74%29.98 "HgN/A
5:30 PM77 °FPassing clouds.7 mph74%29.98 "HgN/A
5:00 PM79 °FScattered clouds.9 mph70%29.95 "HgN/A
4:30 PM81 °FPassing clouds.10 mph66%29.95 "HgN/A
4:00 PM81 °FPassing clouds.10 mph66%29.95 "HgN/A
3:30 PM82 °FPassing clouds.10 mph62%29.95 "HgN/A
3:00 PM82 °FPassing clouds.12 mph62%29.95 "HgN/A
Weather by CustomWeather, © 2014

See weather overviewHow to use our weather pages